EXS1425 EGSS-LFST

Flight info

Callsign EXS1425
Flight time 1h 1m
Altitude 33000
Route CLN DCT SASKI DCT NIK DCT DIK DCT SUTAL DCT GTQ
Aircraft A21N/M-SDE2E3FGHIRWXY/LB1

Departure

Time 2026-05-08 18:07
Airport London Stansted Airport (EGSS)

Arrival

Time 2026-05-08 19:08
Airport Strasbourg Airport (LFST)
Time Latitude Longitude Altitude Speed Heading
2026-05-08 17:46 51.88947 0.25222 358 ft 0 kts 42°
2026-05-08 17:53 51.88939 0.25211 365 ft 4 kts 42°
2026-05-08 17:53 51.88920 0.25182 363 ft 4 kts 44°
2026-05-08 17:53 51.88901 0.25151 362 ft 4 kts 45°
2026-05-08 17:54 51.88885 0.25126 365 ft 3 kts 43°
2026-05-08 17:54 51.88866 0.25106 364 ft 4 kts 358°
2026-05-08 17:54 51.88849 0.25121 365 ft 4 kts 313°
2026-05-08 17:54 51.88837 0.25141 365 ft 0 kts 313°
2026-05-08 17:57 51.88838 0.25140 365 ft 1 kts 313°
2026-05-08 17:57 51.88847 0.25125 358 ft 4 kts 313°
2026-05-08 17:58 51.88873 0.25081 364 ft 7 kts 314°
2026-05-08 17:58 51.88914 0.25012 358 ft 10 kts 314°
2026-05-08 17:58 51.88966 0.24929 364 ft 11 kts 319°
2026-05-08 17:58 51.89025 0.24835 358 ft 13 kts 306°
2026-05-08 17:59 51.88993 0.24708 358 ft 14 kts 229°
2026-05-08 17:59 51.88919 0.24592 358 ft 15 kts 223°
2026-05-08 17:59 51.88838 0.24470 356 ft 16 kts 223°
2026-05-08 17:59 51.88756 0.24347 356 ft 17 kts 223°
2026-05-08 18:00 51.88666 0.24212 347 ft 18 kts 223°
2026-05-08 18:00 51.88460 0.23904 351 ft 22 kts 223°
2026-05-08 18:00 51.88344 0.23729 349 ft 24 kts 223°
2026-05-08 18:01 51.88218 0.23539 348 ft 25 kts 223°
2026-05-08 18:01 51.88087 0.23343 345 ft 26 kts 223°
2026-05-08 18:01 51.87950 0.23140 351 ft 27 kts 223°
2026-05-08 18:01 51.87807 0.22927 350 ft 29 kts 222°
2026-05-08 18:02 51.87665 0.22717 343 ft 25 kts 222°
2026-05-08 18:02 51.87580 0.22591 335 ft 25 kts 222°
2026-05-08 18:02 51.87411 0.22334 332 ft 14 kts 227°
2026-05-08 18:02 51.87408 0.22203 330 ft 12 kts 295°
2026-05-08 18:03 51.87432 0.22152 326 ft 0 kts 311°
2026-05-08 18:04 51.87433 0.22151 326 ft 0 kts 311°
2026-05-08 18:04 51.87439 0.22140 329 ft 2 kts 311°
2026-05-08 18:05 51.87453 0.22115 327 ft 4 kts 311°
2026-05-08 18:05 51.87476 0.22072 326 ft 6 kts 313°
2026-05-08 18:05 51.87514 0.22016 327 ft 9 kts 347°
2026-05-08 18:05 51.87564 0.22081 326 ft 10 kts 42°
2026-05-08 18:06 51.87656 0.22215 330 ft 41 kts 42°
2026-05-08 18:06 51.88038 0.22785 335 ft 106 kts 44°
2026-05-08 18:06 51.88712 0.23799 347 ft 155 kts 41°
2026-05-08 18:06 51.89551 0.25020 691 ft 163 kts 46°
2026-05-08 18:07 51.90390 0.26298 1270 ft 165 kts 48°
2026-05-08 18:07 51.91219 0.27624 1737 ft 174 kts 51°
2026-05-08 18:07 51.91787 0.29376 2140 ft 184 kts 83°
2026-05-08 18:07 51.91613 0.31478 2630 ft 198 kts 113°
2026-05-08 18:08 51.90995 0.33582 3138 ft 219 kts 116°
2026-05-08 18:08 51.90312 0.35943 3589 ft 242 kts 115°
2026-05-08 18:08 51.89587 0.38508 4219 ft 256 kts 115°
2026-05-08 18:08 51.88840 0.41161 5058 ft 260 kts 115°
2026-05-08 18:09 51.88057 0.43837 5907 ft 264 kts 116°
2026-05-08 18:09 51.87257 0.46554 6706 ft 269 kts 116°
2026-05-08 18:09 51.86451 0.49282 7456 ft 274 kts 116°
2026-05-08 18:09 51.85619 0.52091 8246 ft 279 kts 116°
2026-05-08 18:10 51.84771 0.54957 9063 ft 284 kts 116°
2026-05-08 18:10 51.83912 0.57872 9842 ft 290 kts 116°
2026-05-08 18:10 51.83087 0.60910 10462 ft 303 kts 109°
2026-05-08 18:10 51.82788 0.64335 10789 ft 325 kts 89°
2026-05-08 18:11 51.82953 0.68090 11118 ft 345 kts 85°
2026-05-08 18:11 51.83186 0.72110 11437 ft 364 kts 85°
2026-05-08 18:11 51.83386 0.76262 11863 ft 377 kts 87°
2026-05-08 18:11 51.83558 0.80519 12620 ft 379 kts 87°
2026-05-08 18:12 51.83726 0.84735 13363 ft 382 kts 88°
2026-05-08 18:12 51.83888 0.89057 14057 ft 386 kts 88°
2026-05-08 18:12 51.84052 0.93406 14666 ft 389 kts 88°
2026-05-08 18:12 51.84216 0.97800 15266 ft 392 kts 88°
2026-05-08 18:13 51.84380 1.02220 15861 ft 395 kts 88°
2026-05-08 18:13 51.84541 1.06674 16445 ft 398 kts 88°
2026-05-08 18:13 51.84695 1.11172 16985 ft 402 kts 89°
2026-05-08 18:13 51.84541 1.15643 17524 ft 403 kts 102°
2026-05-08 18:14 51.83775 1.19998 18072 ft 404 kts 110°
2026-05-08 18:14 51.82834 1.24303 18570 ft 407 kts 111°
2026-05-08 18:14 51.81869 1.28649 19001 ft 411 kts 111°
2026-05-08 18:14 51.80904 1.33030 19452 ft 414 kts 110°
2026-05-08 18:15 51.79938 1.37439 19868 ft 418 kts 110°
2026-05-08 18:15 51.78960 1.41893 20286 ft 422 kts 110°
2026-05-08 18:15 51.77988 1.46322 20707 ft 425 kts 109°
2026-05-08 18:15 51.76999 1.50856 21157 ft 429 kts 109°
2026-05-08 18:16 51.76005 1.55417 21586 ft 432 kts 109°
2026-05-08 18:16 51.75338 1.58470 21873 ft 434 kts 109°
2026-05-08 18:16 51.73995 1.64593 22498 ft 438 kts 109°
2026-05-08 18:16 51.72971 1.69243 22948 ft 441 kts 109°
2026-05-08 18:17 51.71937 1.73922 23398 ft 444 kts 109°
2026-05-08 18:17 51.71240 1.77068 23688 ft 447 kts 109°
2026-05-08 18:17 51.70190 1.81801 24041 ft 450 kts 109°
2026-05-08 18:17 51.68779 1.88138 24515 ft 455 kts 109°
2026-05-08 18:18 51.67705 1.92957 24868 ft 458 kts 109°
2026-05-08 18:18 51.66971 1.96229 25113 ft 460 kts 109°
2026-05-08 18:18 51.65882 2.01093 25482 ft 463 kts 109°
2026-05-08 18:18 51.64783 2.05984 25841 ft 465 kts 109°
2026-05-08 18:19 51.63686 2.10847 26195 ft 468 kts 109°
2026-05-08 18:19 51.62569 2.15799 26518 ft 471 kts 109°
2026-05-08 18:19 51.61447 2.20765 26841 ft 474 kts 108°
2026-05-08 18:19 51.60310 2.25805 27147 ft 477 kts 108°
2026-05-08 18:20 51.59184 2.30770 27466 ft 479 kts 109°
2026-05-08 18:20 51.58032 2.35823 27839 ft 480 kts 109°
2026-05-08 18:20 51.56879 2.40876 28233 ft 481 kts 108°
2026-05-08 18:20 51.55727 2.45913 28700 ft 479 kts 108°
2026-05-08 18:21 51.54574 2.50939 29113 ft 479 kts 108°
2026-05-08 18:21 51.53458 2.55971 29476 ft 479 kts 107°
2026-05-08 18:21 51.52374 2.60966 29858 ft 479 kts 107°
2026-05-08 18:21 51.51270 2.66026 30228 ft 479 kts 107°
2026-05-08 18:22 51.50162 2.71082 30547 ft 479 kts 107°
2026-05-08 18:22 51.49047 2.76136 30849 ft 480 kts 107°
2026-05-08 18:22 51.47930 2.81174 31173 ft 480 kts 107°
2026-05-08 18:22 51.46803 2.86212 31489 ft 480 kts 107°
2026-05-08 18:23 51.45670 2.91256 31861 ft 478 kts 106°
2026-05-08 18:23 51.44567 2.96221 32235 ft 477 kts 106°
2026-05-08 18:23 51.43452 3.01244 32535 ft 477 kts 106°
2026-05-08 18:23 51.42331 3.06261 32812 ft 477 kts 106°
2026-05-08 18:24 51.41206 3.11279 33071 ft 478 kts 106°
2026-05-08 18:24 51.40074 3.16300 33147 ft 479 kts 107°
2026-05-08 18:24 51.37822 3.26258 33124 ft 478 kts 107°
2026-05-08 18:25 51.35540 3.36302 33130 ft 478 kts 106°
2026-05-08 18:25 51.33276 3.46228 33107 ft 474 kts 106°
2026-05-08 18:26 51.31017 3.56086 33105 ft 474 kts 106°
2026-05-08 18:26 51.28732 3.66007 33107 ft 474 kts 107°
2026-05-08 18:27 51.26824 3.74261 33083 ft 475 kts 106°
2026-05-08 18:27 51.24142 3.85757 33117 ft 472 kts 107°
2026-05-08 18:28 51.21868 3.95476 33104 ft 470 kts 107°
2026-05-08 18:28 51.19585 4.05256 33133 ft 470 kts 107°
2026-05-08 18:29 51.17219 4.14998 33116 ft 473 kts 112°
2026-05-08 18:29 51.15543 4.19529 33113 ft 477 kts 124°
2026-05-08 18:29 51.13328 4.23501 33125 ft 480 kts 133°
2026-05-08 18:30 51.08521 4.30814 33133 ft 480 kts 134°
2026-05-08 18:30 51.03703 4.38167 33146 ft 480 kts 134°
2026-05-08 18:31 50.98926 4.45526 33139 ft 480 kts 134°
2026-05-08 18:31 50.94089 4.52947 33124 ft 480 kts 134°
2026-05-08 18:32 50.89265 4.60309 33127 ft 481 kts 134°
2026-05-08 18:32 50.84454 4.67658 33132 ft 480 kts 134°
2026-05-08 18:33 50.79728 4.74850 33124 ft 471 kts 135°
2026-05-08 18:33 50.74982 4.82045 33125 ft 473 kts 135°
2026-05-08 18:34 50.70216 4.89250 33122 ft 474 kts 135°
2026-05-08 18:34 50.65433 4.96445 33105 ft 474 kts 135°
2026-05-08 18:35 50.60689 5.03580 33109 ft 474 kts 135°
2026-05-08 18:35 50.55908 5.10741 33111 ft 474 kts 135°
2026-05-08 18:36 50.51192 5.17782 33134 ft 463 kts 136°
2026-05-08 18:36 50.47840 5.22775 33125 ft 467 kts 136°
2026-05-08 18:38 50.46455 5.24838 33187 ft 469 kts 136°
2026-05-08 18:38 50.41737 5.31853 33177 ft 467 kts 136°
2026-05-08 18:39 50.37032 5.38819 33110 ft 467 kts 136°
2026-05-08 18:39 50.32304 5.45803 33087 ft 467 kts 136°
2026-05-08 18:40 50.27565 5.52781 33102 ft 469 kts 136°
2026-05-08 18:40 50.22840 5.59704 33088 ft 463 kts 137°
2026-05-08 18:41 50.18132 5.66601 33077 ft 463 kts 137°
2026-05-08 18:41 50.13451 5.73422 33085 ft 463 kts 137°
2026-05-08 18:42 50.08747 5.80291 33085 ft 463 kts 137°
2026-05-08 18:42 50.04031 5.87139 33094 ft 464 kts 137°
2026-05-08 18:43 49.99308 5.93971 33095 ft 465 kts 137°
2026-05-08 18:43 49.94589 6.00789 33085 ft 462 kts 138°
2026-05-08 18:44 49.89878 6.07569 33100 ft 462 kts 138°
2026-05-08 18:44 49.84853 6.13728 33126 ft 460 kts 152°
2026-05-08 18:45 49.79062 6.17784 33096 ft 459 kts 159°
2026-05-08 18:45 49.73148 6.21641 33094 ft 460 kts 158°
2026-05-08 18:46 49.67263 6.25532 33114 ft 460 kts 158°
2026-05-08 18:46 49.61381 6.29435 33095 ft 460 kts 158°
2026-05-08 18:47 49.55584 6.33278 32617 ft 450 kts 159°
2026-05-08 18:47 49.52681 6.35195 31377 ft 460 kts 159°
2026-05-08 18:47 49.49710 6.37150 30291 ft 467 kts 159°
2026-05-08 18:48 49.46724 6.39117 29241 ft 467 kts 158°
2026-05-08 18:48 49.43726 6.41126 28231 ft 467 kts 158°
2026-05-08 18:48 49.40777 6.43146 27516 ft 461 kts 158°
2026-05-08 18:48 49.37868 6.45142 26903 ft 453 kts 158°
2026-05-08 18:49 49.35044 6.47073 26289 ft 446 kts 158°
2026-05-08 18:49 49.32230 6.48989 25675 ft 440 kts 158°
2026-05-08 18:49 49.29447 6.50877 25114 ft 434 kts 158°
2026-05-08 18:49 49.26700 6.52735 24503 ft 429 kts 158°
2026-05-08 18:50 49.23978 6.54575 23893 ft 424 kts 158°
2026-05-08 18:50 49.21293 6.56389 23241 ft 420 kts 158°
2026-05-08 18:50 49.19302 6.57734 22764 ft 416 kts 158°
2026-05-08 18:51 49.19163 6.57827 22742 ft 415 kts 158°
2026-05-08 18:51 49.16520 6.59612 22103 ft 410 kts 158°
2026-05-08 18:51 49.13911 6.61370 21511 ft 408 kts 158°
2026-05-08 18:51 49.11322 6.63112 20919 ft 406 kts 158°
2026-05-08 18:52 49.08741 6.64844 20340 ft 403 kts 158°
2026-05-08 18:52 49.06171 6.66569 19777 ft 401 kts 158°
2026-05-08 18:52 49.03646 6.68261 19256 ft 399 kts 158°
2026-05-08 18:52 49.01107 6.69959 18746 ft 397 kts 158°
2026-05-08 18:53 48.98574 6.71634 18208 ft 396 kts 159°
2026-05-08 18:53 48.96015 6.73184 17668 ft 394 kts 160°
2026-05-08 18:53 48.93454 6.74703 17121 ft 393 kts 161°
2026-05-08 18:53 48.90902 6.76205 16589 ft 391 kts 161°
2026-05-08 18:54 48.88361 6.77708 16064 ft 390 kts 161°
2026-05-08 18:54 48.85872 6.79190 15572 ft 389 kts 161°
2026-05-08 18:54 48.83354 6.80683 15095 ft 387 kts 161°
2026-05-08 18:54 48.80835 6.82174 14600 ft 386 kts 161°
2026-05-08 18:55 48.75848 6.85117 13626 ft 383 kts 161°
2026-05-08 18:55 48.73376 6.86578 13115 ft 378 kts 161°
2026-05-08 18:55 48.70956 6.88004 12608 ft 370 kts 161°
2026-05-08 18:56 48.68595 6.89395 12119 ft 364 kts 161°
2026-05-08 18:56 48.66256 6.90768 11671 ft 357 kts 161°
2026-05-08 18:56 48.63961 6.92114 11283 ft 349 kts 162°
2026-05-08 18:56 48.61732 6.93422 11046 ft 337 kts 162°
2026-05-08 18:57 48.59572 6.94672 10864 ft 325 kts 162°
2026-05-08 18:57 48.58187 6.95472 10748 ft 317 kts 162°
2026-05-08 18:57 48.55523 6.97015 10559 ft 302 kts 162°
2026-05-08 18:57 48.53594 6.98134 10423 ft 291 kts 162°
2026-05-08 18:58 48.51722 6.99213 10083 ft 288 kts 162°
2026-05-08 18:58 48.49846 7.00291 9667 ft 287 kts 162°
2026-05-08 18:58 48.47988 7.01362 9273 ft 285 kts 162°
2026-05-08 18:58 48.46135 7.02434 8906 ft 283 kts 161°
2026-05-08 18:59 48.44292 7.03505 8496 ft 283 kts 161°
2026-05-08 18:59 48.42460 7.04569 8106 ft 282 kts 161°
2026-05-08 18:59 48.40631 7.05628 7724 ft 281 kts 161°
2026-05-08 18:59 48.38829 7.06671 7331 ft 280 kts 161°
2026-05-08 19:00 48.37628 7.07366 7083 ft 279 kts 161°
2026-05-08 19:00 48.35218 7.08831 6618 ft 277 kts 152°
2026-05-08 19:00 48.33821 7.10728 6371 ft 274 kts 127°
2026-05-08 19:00 48.33066 7.13321 6191 ft 270 kts 103°
2026-05-08 19:01 48.33048 7.16109 6041 ft 266 kts 79°
2026-05-08 19:01 48.33604 7.18731 5928 ft 259 kts 73°
2026-05-08 19:01 48.33873 7.21379 5813 ft 257 kts 89°
2026-05-08 19:01 48.33937 7.24052 5698 ft 257 kts 90°
2026-05-08 19:02 48.33989 7.26736 5590 ft 254 kts 88°
2026-05-08 19:02 48.34353 7.29319 5475 ft 248 kts 66°
2026-05-08 19:02 48.35207 7.31503 5476 ft 246 kts 54°
2026-05-08 19:02 48.36296 7.33494 5486 ft 245 kts 49°
2026-05-08 19:03 48.37438 7.35346 5505 ft 245 kts 47°
2026-05-08 19:03 48.38230 7.36605 5441 ft 244 kts 47°
2026-05-08 19:03 48.39392 7.38476 5178 ft 243 kts 48°
2026-05-08 19:03 48.40899 7.40969 4706 ft 241 kts 48°
2026-05-08 19:04 48.41652 7.42237 4456 ft 240 kts 49°
2026-05-08 19:04 48.42764 7.44114 4072 ft 239 kts 49°
2026-05-08 19:04 48.43838 7.45931 3667 ft 231 kts 49°
2026-05-08 19:04 48.44888 7.47708 3312 ft 220 kts 49°
2026-05-08 19:05 48.45884 7.49391 2982 ft 212 kts 50°
2026-05-08 19:05 48.46831 7.50990 2762 ft 195 kts 49°
2026-05-08 19:05 48.47708 7.52472 2464 ft 184 kts 50°
2026-05-08 19:05 48.48540 7.53881 2139 ft 175 kts 49°
2026-05-08 19:06 48.49306 7.55178 1879 ft 163 kts 50°
2026-05-08 19:06 48.50044 7.56428 1611 ft 151 kts 49°
2026-05-08 19:06 48.50693 7.57526 1355 ft 131 kts 48°
2026-05-08 19:06 48.51297 7.58549 1151 ft 131 kts 48°
2026-05-08 19:07 48.51902 7.59575 959 ft 129 kts 47°
2026-05-08 19:07 48.52507 7.60578 765 ft 130 kts 47°
2026-05-08 19:07 48.53098 7.61577 565 ft 129 kts 46°
2026-05-08 19:07 48.53652 7.62517 517 ft 98 kts 48°
2026-05-08 19:08 48.53970 7.63065 517 ft 43 kts 50°
2026-05-08 19:08 48.54142 7.63362 517 ft 26 kts 51°
2026-05-08 19:08 48.54226 7.63386 517 ft 13 kts 316°
2026-05-08 19:08 48.54283 7.63309 517 ft 7 kts 316°
2026-05-08 19:09 48.54300 7.63231 517 ft 9 kts 281°
2026-05-08 19:09 48.54326 7.63139 517 ft 11 kts 307°
2026-05-08 19:09 48.54380 7.63051 517 ft 12 kts 305°
2026-05-08 19:09 48.54353 7.62928 517 ft 14 kts 228°
2026-05-08 19:10 48.54290 7.62805 517 ft 16 kts 256°
2026-05-08 19:10 48.54243 7.62680 517 ft 11 kts 210°
2026-05-08 19:10 48.54188 7.62599 517 ft 10 kts 232°
2026-05-08 19:10 48.54210 7.62559 517 ft 2 kts 331°
2026-05-08 19:11 48.54218 7.62553 517 ft 0 kts 332°